Regional Weather Roundup
Issued by NWS

Home | Current Version | Previous Version | Graphics & Text | Print | Product List | Glossary Off
Versions: 1 2 3 4 5 6 7 8 9 10 11 12 13 14 15 16 17 18 19 20 21 22 23 24 25 26 27 28 29 30 31 32 33 34 35 36 37 38 39 40 41 42 43 44 45 46 47 48 49 50

000
ASUS43 KMPX 192301
RWRMN
WEATHER ROUNDUP FOR MINNESOTA
NATIONAL WEATHER SERVICE TWIN CITIES/CHANHASSEN MN
500 PM CST SUN FEB 19 2017


NOTE: "FAIR" INDICATES FEW OR NO CLOUDS BELOW 12,000 FEET WITH NO
SIGNIFICANT WEATHER AND/OR OBSTRUCTIONS TO VISIBILITY. N/A MEANS
CURRENT SKY AND/OR WEATHER CONDITIONS ARE NOT AVAILABLE.

MNZ060>063-068>070-200000-
   Twin Cities Metro

CITY           SKY/WX    TMP DP  RH WIND       PRES   REMARKS
TWIN CITIES    CLOUDY    56  40  55 SE14      29.88S
ST PAUL        MOCLDY    54  40  59 SE12      29.89S
CRYSTAL        PTCLDY    67  38  34 SE13      29.85F
BLAINE         MOCLDY    57  39  51 SE14G21   29.87S
LAKEVILLE      PTCLDY    54  45  71 SE8       29.88S
EDEN PRAIRIE   PTCLDY    56  42  59 SE15      29.85S
SOUTH ST PAUL  PTCLDY    55  38  52 SE5       29.89S
LAKE ELMO      FAIR      55  39  54 SE9       29.90S
$$
MNZ001>005-007-008-013>017-022>024-027-028-200000-
   Northwest Minnesota

CITY           SKY/WX    TMP DP  RH WIND       PRES   REMARKS
BEMIDJI        MIX PCPN  45  32  60 SE12      29.77S
HALLOCK        PTCLDY    43  34  70 E21       29.64F
ROSEAU         PTCLDY    39  34  81 MISG      29.74F
WARROAD        PTCLDY    41  34  75 E13       29.78F
CROOKSTON      CLOUDY    46  37  71 SE14      29.64F
FOSSTON        CLOUDY    48  34  57 SE17G28   29.69F
DETROIT LAKES  CLOUDY    50  37  62 SE21G26   29.69F
MOORHEAD       CLOUDY    54  45  71 SE16G24   29.63S
PARK RAPIDS    CLOUDY    48  32  53 E10       29.75F
MAHNOMEN       FAIR      49  37  62 SE20      29.67S
$$
MNZ006-009>011-018-025>026-200000-
   North Central Minnesota

CITY           SKY/WX    TMP DP  RH WIND       PRES   REMARKS
BAUDETTE       PTCLDY    41  30  65 E15       29.80F
FLAG ISLAND    CLOUDY    43  28  56 E10G17    29.81S
INTL FALLS     PTCLDY    43  30  60 E10       29.86F
WASKISH        CLOUDY    48  30  49 E9        29.79F
BIG FORK       CLOUDY    48  28  46 SE9       29.84S
LONGVILLE      CLOUDY    50  30  46 E6        29.81F
GRAND RAPIDS   MOCLDY    49  30  48 SE12      29.86F
CRANE LAKE     CLOUDY    45  30  57 CALM      29.93S
ORR            PTCLDY    50  25  37 CALM      29.85F
COOK           PTCLDY    50  28  43 E6        29.90R
WALKER         FAIR      46  32  58 E5        29.79S
$$
MNZ012-019>021-037-200000-
   Northeast Minnesota

CITY           SKY/WX    TMP DP  RH WIND       PRES   REMARKS
DULUTH         PTCLDY    40  30  67 E16       29.94R
ELY            PTCLDY    43  28  56 SE10      29.93F
HIBBING        PTCLDY    43  28  55 SE10      29.89S
EVELETH        CLOUDY    46  23  40 E8        29.92S
DULUTH HARBOR  PTCLDY    36  34  93 CALM      29.99R
TWO HARBORS    PTCLDY    41  32  70 E14G22    29.96S
GRAND MARAIS     N/A     37  31  78 NE10      30.06S
G MARAIS ARPRT CLOUDY    34  25  69 SE5       30.03R WCI  30
$$
MNZ029>031-032-039>041-046>048-054>057-064-200000-
   West Central Minnesota

CITY           SKY/WX    TMP DP  RH WIND       PRES   REMARKS
FERGUS FALLS   PTCLDY    54  45  71 SE18G24   29.69F
WHEATON        MOCLDY    54  48  82 SE22      29.65S
MORRIS         CLOUDY    54  48  82 SE23G29   29.67S
ALEXANDRIA     CLOUDY    52  44  74 SE21G26   29.73F
ELBOW LAKE     FAIR      53  46  78 SE15G24   29.67F
WADENA         CLOUDY    48  37  66 SE15      29.74S
GLENWOOD       CLOUDY    52  45  76 E14       29.75F
APPLETON       CLOUDY    55  48  76 SE18      29.67F
BENSON         CLOUDY    57  46  67 SE15G24   29.72F
ORTONVILLE     PTCLDY    55  48  76 SE15      29.66R
WILLMAR        FAIR      55  50  82 SE6G21    29.77S
$$
MNZ033>034-036-042>043-049>051-058-059-200000-
   Central Minnesota

CITY           SKY/WX    TMP DP  RH WIND       PRES   REMARKS
ST CLOUD       PTCLDY    55  42  61 SE12      29.81F
SAUK CENTRE    FAIR      52  43  72 SE14      29.77F
PAYNESVILLE    CLOUDY    54  43  66 SE12      29.79S
AITKIN         CLOUDY    55  28  35 E7        29.83S
PINE RIVER     CLOUDY    50  36  57 SE13      29.84S
BRAINERD       PTCLDY    51  34  52 SE12G21   29.81F
STAPLES        CLOUDY    52  36  54 SE9       29.78S
LONG PRAIRIE   FAIR      50  41  71 E12       29.77F
LITTLE FALLS   CLOUDY    54  36  50 SE10G18   29.81S
LITCHFIELD     PTCLDY    55  46  71 SE15      29.80F
BUFFALO        CLOUDY    56  41  57 SE13      29.84S
MAPLE LAKE     PTCLDY    55  44  65 SE8       29.83F
HUTCHINSON     PTCLDY    56  49  77 E13       29.82S
$$
MNZ037-044-045-052-053-200000-
   East Central Minnesota

CITY           SKY/WX    TMP DP  RH WIND       PRES   REMARKS
PRINCETON      CLOUDY    57  39  51 SE10G17   29.85S
MORA           CLOUDY    50  36  57 E6        29.89S
CAMBRIDGE      CLOUDY    55  39  54 E8        29.86R
RUSH CITY      PTCLDY    54  36  50 SE8       29.89S
MOOSE LAKE     PTCLDY    43  32  65 NE6       29.89S
HINCKLEY       FAIR      54  34  47 SE7       29.89S
CLOQUET        CLOUDY    39  28  65 E10       29.92S
MCGREGOR       MOCLDY    46  32  57 E8        29.88R
$$
MNZ071>073-080-081-089-090-097-098-200000-
   Southwest Minnesota

CITY           SKY/WX    TMP DP  RH WIND       PRES   REMARKS
MONTEVIDEO     CLOUDY    57  52  82 S15G22    29.72F
GRANITE FALLS  PTCLDY    61  53  74 SE16G22   29.73F
CANBY          CLOUDY    62  51  66 SE18G24   29.68F
MARSHALL       CLOUDY    61  52  72 S20G33    29.71S
REDWOOD FALLS  PTCLDY    58  51  78 SE16      29.76F
OLIVIA         MOCLDY    55  50  82 SE15      29.76S
PIPESTONE      PTCLDY    59  46  63 S16       29.71S
WINDOM         CLOUDY    61  52  72 SE16G22   29.77F
WORTHINGTON    CLOUDY    59  50  72 S14       29.77S
JACKSON        CLOUDY    57  50  77 SE13      29.80F
TRACY          CLOUDY    61  53  76 S14       29.74S
SLAYTON        CLOUDY    58  50  75 SE14      29.75S
$$
MNZ065>067-074>077-082>085-091>093-200000-
   South Central Minnesota

CITY           SKY/WX    TMP DP  RH WIND       PRES   REMARKS
MANKATO          N/A     55  48  77 SE16      29.84S
NEW ULM        PTCLDY    57  50  77 SE14G21   29.81R
ST JAMES       PTCLDY    59  54  82 SE10      29.82S
FAIRMONT       PTCLDY    59  52  77 SE14      29.83S
GLENCOE        PTCLDY    57  51  79 SE13      29.82S
FARIBAULT      CLOUDY    55  46  71 SE13      29.88S
OWATONNA       CLOUDY    55  45  67 SE15      29.88S
WASECA         CLOUDY    54  46  76 SE13      29.88R
ALBERT LEA     CLOUDY    57  46  67 SE10      29.88R
$$
MNZ078>079-086>088-094>096-200000-
   Southeast Minnesota

CITY           SKY/WX    TMP DP  RH WIND       PRES   REMARKS
ROCHESTER      CLOUDY    50  43  77 SE13      29.92S
RED WING       PTCLDY    55  36  47 SE8       29.91R
STANTON        CLOUDY    57  42  59 SE10G18   29.86F
WINONA         MOCLDY    54  36  50 SE7       29.94S
AUSTIN         PTCLDY    52  46  82 SE6       29.90R
PRESTON        CLOUDY    54  41  62 SE9       29.92F
$$
ABBREVIATIONS USED IN REMARKS
   TC - TEMPERATURES IN CELSIUS
  WCI - WIND CHILL INDEX
   HX - HEAT INDEX
  VSB - VISIBILITY
$$




USA.gov is the U.S. government's official web portal to all federal, state and local government web resources and services.